Wind_Speed
23 23 22 22 20 15 10 5 3 4 8 13 14 14 14 15 15 14 13 13 11 10 10 10 10 10 10 11 11 12 12 12 12 12 12 12 13 13 14 14 14 14 13 13 13 13 13 13 13
26 25 25 25 24 19 12 7 3 4 9 14 16 15 14 14 14 13 12 11 10 9 9 9 9 9 9 9 9 10 10 10 11 11 11 11 11 12 13 13 13 13 13 13 13 13 13 14 14
28 28 28 29 27 23 16 11 4 2 8 15 17 16 14 12 10 10 10 9 8 7 7 7 7 7 7 7 7 8 8 8 8 8 8 9 9 10 11 12 12 12 13 13 13 13 13 14 14
30 31 31 32 30 26 19 13 7 3 9 15 18 16 14 10 6 6 7 7 6 6 6 5 5 6 6 6 6 6 6 6 6 5 5 6 7 8 9 10 11 12 12 12 12 12 13 14 14
30 33 34 33 32 27 22 15 9 6 11 15 17 16 14 10 5 5 6 5 5 5 4 4 3 3 3 4 4 4 4 4 3 3 3 4 5 6 8 9 10 11 11 11 12 12 13 14 15
28 32 34 33 34 30 25 18 11 7 13 15 18 17 13 9 4 5 5 4 4 4 3 2 2 2 2 2 3 3 2 2 1 1 1 2 3 5 6 8 9 10 11 12 12 13 14 15 16
25 30 33 33 35 33 27 20 14 11 13 16 19 17 13 9 3 5 5 5 4 4 4 4 4 4 4 4 3 3 2 2 1 1 1 2 3 4 6 8 9 11 11 12 12 13 14 16 17
24 28 30 33 37 35 28 23 17 15 16 18 20 17 15 12 5 6 6 5 5 5 5 6 6 5 5 5 4 4 3 3 3 3 3 3 4 5 7 8 10 11 12 12 13 14 15 17 19
24 25 25 30 35 34 31 27 21 19 18 18 20 19 17 14 9 8 7 7 6 6 6 6 6 5 5 5 4 4 4 4 4 4 4 4 5 6 7 8 10 11 13 14 15 16 17 18 19
22 20 18 25 32 34 34 31 24 22 21 20 20 21 19 16 12 11 9 8 7 6 6 5 5 4 4 4 4 4 4 4 5 5 5 5 6 7 7 9 11 13 14 15 16 17 18 20 21
20 16 18 26 31 34 35 33 29 26 24 22 21 21 20 18 15 13 11 8 7 6 5 4 3 2 2 3 3 3 4 5 5 5 6 6 6 7 8 10 12 13 15 16 17 18 20 21 22
20 16 20 26 31 35 35 34 32 28 25 24 22 22 21 20 16 15 12 10 8 6 5 5 3 2 1 2 3 3 3 4 5 5 5 6 7 8 10 11 13 14 14 14 16 18 20 22 23
20 18 20 25 30 33 35 34 32 29 26 26 25 24 21 18 17 15 14 11 9 8 6 5 4 3 2 1 1 2 3 3 4 4 5 5 7 9 11 11 13 13 14 14 15 16 18 20 22
22 21 22 26 29 30 33 33 33 29 28 28 26 24 22 20 18 16 15 13 11 9 8 7 6 6 5 3 3 3 3 3 4 4 5 6 7 9 11 12 13 14 14 15 16 16 17 19 21
26 25 25 25 26 26 28 30 30 30 32 30 28 25 23 22 20 17 17 15 14 12 9 8 8 7 7 6 5 5 5 6 7 7 8 9 9 10 11 13 12 13 13 15 16 16 16 17 19
29 27 25 24 24 24 24 24 28 32 33 31 29 27 25 23 19 18 18 17 18 15 12 11 10 9 8 8 8 8 8 8 10 10 11 12 12 12 13 14 14 14 14 14 15 16 16 16 17
30 27 25 23 22 22 21 20 28 35 34 32 30 28 24 22 21 21 19 18 19 17 15 13 12 12 12 12 11 11 11 11 13 14 15 15 15 15 15 15 16 16 16 16 16 16 16 16 16
30 27 25 23 21 21 20 20 26 32 34 33 31 29 26 25 23 22 20 19 20 19 17 16 14 15 16 16 15 15 16 17 17 18 19 19 18 18 18 18 18 19 18 18 17 17 17 16 16
30 29 25 23 23 21 20 21 24 28 29 30 30 28 26 25 24 23 22 20 20 19 16 14 14 17 18 20 20 20 21 22 23 23 23 23 23 22 22 21 20 20 19 19 19 19 17 18 18
31 28 25 24 23 21 22 25 26 27 28 27 27 27 26 26 25 24 22 20 19 17 16 17 17 20 21 22 24 25 26 26 27 27 28 27 26 25 25 25 23 22 22 22 22 21 20 20 20
32 29 26 25 24 23 26 28 29 28 28 27 26 26 27 26 26 26 25 22 20 20 19 19 21 22 24 26 28 28 29 29 29 30 30 30 29 28 27 27 26 24 25 25 24 24 24 24 24
31 29 28 27 25 25 29 29 29 28 28 28 26 27 28 28 27 27 27 25 23 23 24 24 26 27 30 30 29 30 31 32 32 31 31 32 32 30 29 29 28 28 28 28 27 27 27 27 28
30 31 30 29 28 28 29 30 30 30 30 30 28 27 27 28 29 29 28 28 28 28 28 29 30 32 33 33 34 35 35 35 34 34 35 34 33 32 32 31 30 30 30 29 30 30 30 31 32
31 32 32 31 31 30 30 31 31 33 33 32 31 30 29 29 29 30 30 31 31 31 32 33 35 35 36 38 39 38 38 37 37 37 36 35 34 33 33 32 32 32 31 32 32 33 34 35 36
31 33 33 34 34 32 30 31 30 30 31 34 35 34 34 33 33 33 34 33 34 35 36 37 38 39 40 41 41 40 39 38 37 37 35 35 35 34 34 34 34 34 34 35 35 36 37 38 40
28 32 33 36 37 35 33 33 32 29 30 33 35 37 37 36 35 35 35 36 37 38 40 40 42 43 44 43 42 41 40 39 38 37 37 36 36 35 35 35 36 37 37 38 39 40 41 42 44
23 26 29 33 35 35 36 37 36 33 32 33 35 37 38 38 37 36 37 38 40 41 43 44 45 46 45 44 43 42 41 39 38 37 37 37 37 37 38 39 40 40 40 41 43 44 45 46 48
21 22 26 29 31 32 35 37 37 33 31 32 33 35 37 39 39 39 39 39 42 44 45 47 47 47 46 44 43 42 40 40 40 40 40 40 41 41 42 43 43 44 44 45 47 48 50 51 51
20 24 26 27 29 31 33 35 36 32 31 32 33 34 35 37 38 39 40 42 43 45 46 47 46 46 45 44 43 42 41 42 42 43 44 44 45 45 46 46 47 48 49 50 52 53 54 54 55
20 23 25 28 29 31 35 38 37 33 28 28 31 33 35 38 39 40 42 44 45 45 45 45 45 44 44 43 43 43 44 44 45 46 47 47 48 49 50 51 52 53 55 56 56 56 57 57 58
Wind_Direction
207 200 192 183 175 171 180 176 108 14 320 304 300 301 304 300 299 294 280 267 259 254 250 243 238 238 238 241 245 249 251 254 257 260 263 269 274 278 280 281 281 281 279 278 277 276 275 273 272
210 205 198 189 184 177 182 171 79 353 306 296 294 294 297 298 296 287 268 257 250 245 240 237 234 234 236 240 243 245 247 251 255 258 263 269 274 278 279 280 280 279 278 277 277 277 277 277 276
213 209 203 194 189 187 190 183 161 271 286 293 296 298 300 295 288 272 254 244 237 230 228 229 228 227 228 232 236 238 240 245 250 255 262 269 273 275 277 279 278 278 277 276 277 278 279 279 278
216 212 207 198 191 191 195 192 176 241 273 284 294 302 302 299 290 258 236 224 221 219 220 221 222 223 225 227 228 229 232 237 241 249 260 271 276 276 277 278 278 277 276 276 277 279 279 280 279
220 216 211 202 192 193 195 195 194 232 267 279 290 297 298 301 294 250 227 209 207 208 209 209 212 214 215 214 211 209 211 218 226 241 256 272 280 281 281 282 281 281 281 280 279 280 279 278 278
227 222 215 204 194 195 198 200 202 228 264 275 281 285 290 292 276 235 215 189 189 186 179 169 150 141 150 154 155 157 160 165 168 181 255 299 298 294 291 289 290 290 289 287 285 283 280 278 277
235 229 220 206 197 196 199 206 206 218 252 269 276 278 282 280 242 218 197 171 173 168 154 136 121 117 119 116 113 113 120 113 94 59 18 346 322 309 306 305 303 301 299 296 292 287 283 280 279
241 236 224 209 200 196 199 209 213 223 243 261 271 275 277 273 235 207 193 170 167 157 143 134 125 118 113 107 102 94 86 71 58 43 25 5 343 329 324 320 314 310 306 302 297 292 288 285 282
245 242 230 212 203 196 201 209 213 223 238 252 264 268 268 262 229 199 191 173 168 158 147 138 132 122 113 106 95 86 78 67 55 36 17 2 348 338 333 326 320 314 310 306 301 296 293 289 286
249 248 229 210 202 198 203 209 214 223 233 244 253 261 260 250 222 198 191 180 175 169 160 153 143 128 115 102 88 79 72 62 52 42 31 17 1 350 340 332 326 320 312 307 303 298 294 290 287
248 240 214 203 198 197 201 206 213 222 230 238 244 252 252 244 224 204 197 196 190 186 184 177 170 139 105 91 79 72 64 57 50 43 33 22 11 359 349 339 332 325 319 308 301 299 295 291 288
238 226 210 200 197 196 198 205 211 217 226 235 237 243 246 239 221 206 200 203 204 203 202 205 208 194 107 76 69 64 54 50 48 41 32 23 13 360 357 355 345 331 327 319 309 304 297 291 287
229 220 207 200 198 198 199 203 209 213 218 227 231 236 237 227 220 213 205 204 209 212 216 223 239 248 257 300 23 35 30 31 35 33 23 13 6 357 355 353 347 341 333 327 320 315 306 297 291
220 216 208 202 201 202 203 204 208 209 214 223 229 232 234 224 221 222 211 209 213 220 228 241 255 270 277 286 312 333 343 346 345 351 355 349 347 347 350 348 344 342 340 337 331 323 314 305 296
217 216 213 208 205 206 210 209 210 208 212 219 226 230 232 229 227 227 220 215 218 221 226 240 255 271 284 293 302 317 328 329 326 324 325 323 327 333 337 339 340 337 335 334 330 326 319 308 299
219 219 217 214 210 211 215 211 209 209 211 215 223 231 234 235 234 235 228 225 221 220 224 233 248 260 271 284 292 300 311 315 313 313 311 310 313 317 325 332 331 328 325 325 328 326 320 311 301
221 222 220 218 214 216 220 212 208 208 211 214 221 229 237 240 243 241 235 232 225 223 229 233 247 260 268 277 286 293 298 299 299 301 302 301 301 306 314 321 323 322 323 324 324 325 320 313 305
221 222 221 216 210 213 214 207 202 202 207 211 218 225 233 241 247 247 245 240 232 231 236 241 252 267 277 282 288 293 297 297 296 294 294 293 294 297 304 311 315 314 316 319 318 320 317 315 311
220 221 219 211 205 205 199 192 188 191 199 206 215 226 235 245 248 253 254 247 239 233 239 247 259 271 279 286 291 294 297 297 297 294 292 293 293 296 299 304 306 307 309 312 313 312 311 311 310
216 217 213 206 203 200 187 181 181 186 194 203 216 227 236 244 249 254 254 255 250 247 249 255 265 273 277 282 288 291 293 295 295 294 292 293 294 296 296 297 300 301 302 304 305 303 303 303 304
213 212 204 198 200 196 185 182 184 191 197 204 214 226 236 243 248 253 261 263 267 263 263 269 269 273 278 278 281 285 287 291 291 291 291 291 292 292 293 296 297 297 298 299 298 295 296 296 297
210 208 201 197 199 195 193 189 191 199 205 211 219 228 238 245 251 257 263 268 271 273 274 279 277 281 281 278 280 283 285 289 289 289 289 289 290 290 292 295 296 297 296 296 294 291 291 292 293
205 206 202 199 202 203 203 199 198 206 211 218 224 230 238 246 253 259 265 270 273 276 278 281 283 284 285 285 285 287 288 288 290 289 289 289 289 291 292 293 294 294 294 293 292 291 290 290 291
201 205 204 203 206 206 210 210 205 210 216 222 229 235 241 247 253 259 264 268 271 274 276 279 281 283 286 287 285 287 288 288 288 287 287 288 290 290 289 290 291 291 292 291 290 290 289 290 290
203 206 207 208 211 210 213 218 217 217 222 228 233 238 242 247 253 259 263 266 268 270 273 277 279 282 285 287 286 286 285 284 285 285 285 286 287 287 287 288 289 291 292 291 290 289 289 290 290
208 211 211 213 216 214 215 224 228 227 229 232 234 238 242 246 251 255 259 263 266 268 270 273 277 281 284 286 285 283 283 283 282 282 283 285 285 285 287 288 290 292 292 291 290 291 291 290 289
212 217 217 219 222 223 223 229 233 234 235 235 235 237 240 244 248 252 256 260 264 267 270 273 277 280 282 282 282 281 281 281 282 283 285 286 286 286 288 290 292 292 291 291 291 291 291 290 289
213 216 217 221 222 223 223 227 230 231 232 233 234 236 239 243 247 252 256 260 263 266 269 272 275 277 279 279 279 279 279 280 281 283 284 285 286 287 289 291 291 291 291 291 291 290 290 291 290
208 213 218 221 222 221 220 225 229 230 231 234 234 236 239 243 247 252 256 259 261 264 267 270 272 274 275 276 277 277 278 280 281 282 284 285 287 289 289 290 290 290 290 290 290 290 291 291 290
204 211 216 220 221 222 224 227 231 234 239 243 243 243 245 246 248 252 255 257 259 261 263 266 267 269 271 273 275 276 277 279 280 282 284 285 286 287 288 288 288 289 289 290 290 290 290 290 290
Height
5890 5893 5897 5900 5902 5903 5901 5900 5900 5900 5900 5901 5902 5903 5904 5904 5905 5907 5904 5902 5902 5902 5903 5903 5903 5904 5905 5906 5907 5907 5908 5908 5908 5909 5909 5909 5909 5909 5908 5908 5907 5907 5906 5905 5905 5904 5903 5903 5902
5887 5890 5894 5897 5899 5900 5900 5899 5899 5899 5899 5900 5900 5902 5902 5902 5902 5902 5900 5899 5900 5901 5901 5902 5902 5903 5904 5904 5905 5906 5906 5906 5907 5907 5907 5908 5907 5907 5907 5906 5906 5905 5904 5904 5903 5902 5902 5901 5900
5882 5885 5889 5892 5895 5897 5898 5897 5897 5898 5899 5899 5898 5899 5900 5900 5900 5899 5898 5898 5899 5900 5900 5901 5901 5902 5902 5903 5904 5904 5905 5905 5905 5906 5906 5906 5906 5906 5906 5905 5904 5904 5903 5902 5902 5901 5900 5900 5899
5877 5880 5884 5888 5892 5895 5896 5896 5895 5896 5897 5897 5897 5897 5897 5898 5898 5897 5896 5897 5898 5899 5899 5900 5900 5901 5901 5902 5903 5903 5903 5904 5904 5904 5905 5905 5905 5905 5904 5904 5903 5902 5902 5901 5901 5900 5899 5898 5898
5871 5874 5878 5882 5888 5892 5894 5894 5893 5894 5894 5895 5896 5896 5895 5896 5896 5895 5895 5896 5897 5898 5899 5899 5900 5900 5901 5901 5902 5902 5903 5903 5903 5903 5904 5904 5904 5904 5903 5903 5902 5902 5901 5901 5900 5899 5898 5897 5896
5867 5869 5873 5878 5884 5888 5890 5890 5890 5891 5891 5894 5895 5895 5895 5896 5896 5894 5894 5895 5896 5898 5899 5899 5899 5900 5901 5901 5902 5902 5903 5903 5903 5903 5903 5903 5903 5903 5903 5902 5901 5901 5900 5900 5899 5898 5897 5895 5893
5862 5864 5868 5874 5879 5883 5887 5888 5887 5888 5889 5891 5893 5893 5893 5895 5896 5894 5894 5895 5896 5897 5898 5899 5900 5900 5901 5901 5902 5902 5903 5903 5903 5903 5903 5903 5903 5902 5902 5901 5900 5899 5899 5898 5897 5896 5894 5893 5891
5857 5859 5862 5868 5874 5880 5884 5884 5884 5885 5888 5889 5890 5892 5892 5893 5895 5894 5894 5895 5896 5898 5898 5899 5900 5901 5901 5901 5902 5902 5903 5903 5903 5903 5903 5903 5902 5902 5901 5900 5899 5898 5897 5896 5895 5893 5892 5890 5888
5851 5854 5858 5864 5870 5877 5880 5881 5881 5882 5884 5887 5888 5890 5891 5892 5894 5895 5895 5896 5897 5898 5899 5899 5900 5901 5901 5902 5902 5902 5902 5903 5903 5902 5902 5902 5901 5901 5900 5899 5898 5896 5895 5894 5892 5891 5889 5887 5885
5848 5850 5855 5860 5866 5872 5875 5877 5878 5879 5881 5883 5886 5888 5889 5890 5893 5894 5895 5896 5897 5898 5899 5900 5900 5901 5901 5901 5901 5902 5902 5902 5902 5902 5901 5901 5900 5899 5899 5898 5896 5895 5893 5891 5890 5888 5886 5884 5882
5845 5847 5850 5853 5859 5865 5868 5871 5873 5875 5876 5880 5883 5885 5887 5888 5891 5893 5893 5895 5897 5898 5899 5899 5900 5900 5900 5901 5901 5901 5901 5901 5901 5901 5900 5899 5899 5898 5897 5896 5894 5892 5890 5888 5887 5885 5883 5881 5879
5842 5844 5845 5849 5853 5858 5862 5866 5868 5870 5874 5876 5880 5883 5884 5885 5887 5890 5892 5893 5895 5896 5898 5898 5899 5899 5900 5900 5900 5900 5900 5900 5900 5899 5898 5898 5897 5895 5894 5893 5891 5889 5887 5885 5883 5881 5879 5876 5875
5838 5840 5842 5845 5849 5853 5857 5860 5863 5866 5870 5872 5876 5879 5882 5883 5885 5888 5890 5891 5893 5894 5896 5897 5897 5898 5898 5898 5898 5898 5898 5898 5898 5897 5896 5896 5894 5893 5892 5890 5889 5886 5884 5881 5879 5877 5874 5872 5870
5834 5837 5839 5841 5845 5848 5852 5856 5859 5863 5866 5868 5871 5875 5878 5880 5882 5884 5888 5890 5891 5892 5893 5894 5895 5896 5896 5896 5896 5896 5896 5895 5895 5894 5894 5893 5892 5891 5890 5888 5886 5883 5880 5877 5875 5872 5870 5868 5865
5829 5833 5836 5839 5842 5845 5849 5852 5856 5860 5862 5865 5868 5871 5875 5876 5878 5881 5884 5887 5889 5890 5890 5891 5893 5893 5893 5893 5894 5893 5893 5892 5891 5891 5890 5890 5889 5888 5886 5884 5882 5880 5877 5875 5872 5869 5866 5864 5862
5825 5829 5834 5837 5840 5842 5846 5850 5854 5855 5858 5862 5864 5867 5871 5873 5875 5877 5880 5882 5884 5887 5888 5889 5890 5890 5891 5891 5891 5891 5890 5889 5888 5887 5886 5885 5884 5883 5882 5880 5878 5876 5873 5871 5869 5866 5863 5860 5858
5821 5826 5831 5835 5837 5839 5842 5845 5849 5851 5854 5858 5861 5864 5866 5870 5872 5874 5875 5877 5879 5882 5884 5885 5885 5886 5886 5887 5887 5887 5886 5886 5885 5884 5882 5881 5879 5878 5876 5875 5873 5871 5869 5866 5864 5862 5859 5857 5855
5818 5823 5827 5831 5833 5835 5837 5840 5843 5847 5851 5855 5857 5860 5863 5865 5869 5870 5871 5873 5875 5877 5878 5879 5880 5881 5880 5880 5881 5881 5880 5880 5880 5879 5877 5875 5873 5872 5870 5869 5868 5866 5864 5861 5859 5857 5855 5853 5851
5813 5819 5823 5826 5828 5830 5833 5836 5839 5844 5847 5850 5853 5855 5858 5861 5864 5866 5868 5869 5870 5872 5873 5873 5875 5876 5875 5874 5874 5874 5873 5873 5873 5872 5870 5868 5867 5865 5864 5864 5862 5860 5859 5857 5855 5853 5851 5849 5847
5808 5814 5820 5823 5824 5827 5830 5833 5837 5840 5843 5846 5849 5851 5854 5857 5859 5862 5863 5864 5865 5867 5869 5868 5870 5872 5871 5869 5868 5867 5867 5866 5865 5864 5862 5861 5860 5859 5859 5857 5856 5855 5853 5852 5850 5848 5846 5844 5842
5804 5811 5816 5818 5820 5824 5828 5831 5834 5836 5839 5841 5844 5847 5850 5853 5856 5858 5860 5861 5862 5863 5863 5864 5866 5865 5865 5864 5862 5861 5860 5859 5858 5857 5856 5854 5853 5852 5852 5851 5850 5848 5847 5845 5844 5842 5841 5839 5837
5801 5807 5811 5814 5817 5820 5825 5828 5832 5833 5836 5838 5840 5843 5845 5848 5851 5853 5855 5857 5859 5859 5860 5860 5859 5859 5859 5856 5854 5853 5853 5852 5851 5850 5849 5848 5847 5845 5844 5843 5842 5841 5840 5839 5837 5836 5834 5832 5830
5797 5802 5807 5810 5813 5817 5820 5824 5829 5831 5833 5834 5836 5839 5841 5843 5846 5849 5851 5852 5853 5854 5854 5855 5854 5853 5851 5848 5849 5848 5846 5846 5845 5843 5842 5840 5839 5838 5837 5836 5835 5834 5833 5831 5829 5828 5826 5824 5822
5792 5797 5803 5806 5809 5814 5816 5820 5825 5827 5830 5832 5833 5835 5837 5839 5841 5842 5844 5846 5847 5847 5848 5847 5846 5845 5843 5842 5841 5840 5840 5839 5838 5836 5834 5833 5831 5830 5829 5828 5827 5826 5825 5823 5821 5819 5818 5816 5813
5788 5794 5799 5803 5806 5810 5813 5816 5821 5823 5826 5828 5830 5831 5833 5834 5836 5837 5838 5839 5840 5840 5840 5840 5838 5837 5836 5835 5834 5833 5832 5830 5829 5828 5826 5825 5824 5822 5821 5820 5819 5817 5816 5814 5812 5810 5808 5805 5803
5784 5790 5795 5799 5802 5806 5809 5811 5815 5819 5821 5823 5825 5826 5828 5829 5829 5830 5830 5831 5832 5833 5833 5832 5831 5830 5829 5827 5826 5825 5824 5822 5821 5820 5819 5817 5816 5814 5812 5811 5809 5808 5806 5804 5802 5799 5797 5794 5791
5781 5785 5790 5794 5797 5802 5805 5806 5809 5812 5814 5816 5818 5819 5821 5822 5823 5823 5824 5824 5824 5824 5823 5823 5822 5821 5820 5819 5818 5816 5815 5814 5813 5811 5810 5808 5807 5805 5803 5801 5800 5797 5795 5793 5790 5788 5785 5782 5778
5778 5781 5785 5788 5792 5796 5800 5801 5803 5806 5807 5808 5809 5810 5812 5814 5815 5815 5816 5816 5816 5815 5815 5814 5813 5812 5811 5810 5809 5808 5806 5805 5804 5802 5801 5799 5797 5795 5793 5791 5789 5786 5784 5781 5778 5775 5771 5768 5764
5774 5777 5780 5783 5787 5791 5794 5797 5796 5798 5799 5799 5800 5801 5802 5803 5805 5806 5807 5807 5807 5807 5807 5806 5805 5804 5802 5801 5800 5799 5798 5796 5795 5793 5791 5789 5787 5785 5782 5780 5777 5774 5771 5768 5765 5761 5758 5754 5750
5770 5772 5775 5779 5782 5785 5788 5791 5789 5791 5791 5792 5792 5792 5793 5794 5795 5796 5797 5798 5798 5798 5798 5797 5797 5796 5794 5793 5792 5790 5789 5787 5785 5783 5781 5778 5776 5773 5771 5768 5764 5761 5757 5754 5750 5747 5743 5739 5735